Location: Cheching
(60.0667°N, 164.2167°W)
Time: 21:24:47
(UTC+00:00)

XW-2D - Pass Details

Date: 19 January 2021
Orbit: 505 x 525 km, 97.5° (Epoch: 07 March)

Event Time Altitude Azimuth Distance (km) Brightness Sun altitude
Rises 04:44:28 0° 198° (SSW) 2,619 ? -14.7°
Reaches altitude 10° 04:46:50 10° 212° (SSW) 1,741 ? -15.0°
Maximum altitude 04:49:56 24° 268° (W) 1,104 ? -15.3°
Drops below altitude 10° 04:53:05 10° 324° (NW) 1,763 ? -15.7°
Sets 04:55:30 0° 338° (NNW) 2,661 ? -16.0°
